Find Starlink 32750

NORAD ID: 62572 Int'l Des: 2025-006 Owner: SPXS Country: US Constellation: starlink operational
LEOCIRCULAR

实时位置

正在加载3D地球...

关于 Starlink 32750

正在加载描述...

即将过境

Passes for default location (London). Set your location on the main map for personalized predictions.

高度历史

Loading altitude history...

两行轨道根数

1 62572U 25006U 26124.31052360 .00002723 00000-0 10838-3 0 9997
2 62572 43.0020 338.0618 0000332 274.8902 85.1912 15.27591236 73379
Epoch: May 4, 2026 • Age: 9 hours

当前状态

高度 489.5 km
速度 7.62 km/s
星下点 -26.50°S, 169.18°W
发射日期 Jan 10, 2025
运行时间 1.3 years
类型 internet

技术详情

分类 Payload
质量 730.00 kg
干质量 700.00 kg
总质量 730.00 kg
长度 0.30 m
直径 4.10 m
跨度 29.00 m
形状 Box + pan
制造商 SPXS
平台类型 Starlink V2M
阶段状态 In Orbit
所有者/国家 SPXS/US

Most Searched